Torna al catalogo

COSMOS 886 DEB

AttivoLEO
NORAD 9962·DEBRIS·🇷🇺 Russia

Lanciato Dec 27, 1976 da Baikonur Cosmodrome

Loading…

Prossimi Passaggi (prossime 24 ore)

TLE

AggiornatoSource: Space-Track

Epoca: Sep 14, 2026, 14:46 UTC

1 09962U 76126BC  26257.61577323  .00003545  00000-0  86772-3 0  9994
2 09962  65.7623 122.4119 0541962 140.1036 224.1215 13.90647123408475

Traccia COSMOS 886 DEB in tempo reale con AllMySat

Download on the App Store